owner,sensor,date,latitude,longitude,vertical_datum,wind_speed,wind_to_direction,wind_speed_of_gust,qcFlag 
WAVCIS,ioos:station:WAVCIS:CSI15:1,2008-05-01T00:00:00Z,28.8332,-90.8320,10.0,7.9,107.0,,'11111222,11111222,99999999' 
WAVCIS,ioos:station:WAVCIS:CSI15:1,2008-05-01T01:00:00Z,28.8332,-90.8320,10.0,7.59,109.0,,'11111222,11111222,99999999' 
WAVCIS,ioos:station:WAVCIS:CSI15:1,2008-05-01T02:00:00Z,28.8332,-90.8320,10.0,8.14,113.0,,'11111222,11111222,99999999' 
WAVCIS,ioos:station:WAVCIS:CSI15:1,2008-05-01T03:00:00Z,28.8332,-90.8320,10.0,8.46,116.0,,'11111222,11111222,99999999' 
WAVCIS,ioos:station:WAVCIS:CSI15:1,2008-05-01T04:00:00Z,28.8332,-90.8320,10.0,9.54,112.0,,'11111222,11111222,99999999' 
WAVCIS,ioos:station:WAVCIS:CSI15:1,2008-05-01T05:00:00Z,28.8332,-90.8320,10.0,9.69,124.0,,'11111222,11111222,99999999' 
WAVCIS,ioos:station:WAVCIS:CSI15:1,2008-05-01T06:00:00Z,28.8332,-90.8320,10.0,11.38,138.0,,'11111222,11111222,99999999' 
WAVCIS,ioos:station:WAVCIS:CSI15:1,2008-05-01T07:00:00Z,28.8332,-90.8320,10.0,10.36,134.0,,'11111222,11111222,99999999' 
WAVCIS,ioos:station:WAVCIS:CSI15:1,2008-05-01T08:00:00Z,28.8332,-90.8320,10.0,11.66,141.0,,'11111222,11111222,99999999' 
WAVCIS,ioos:station:WAVCIS:CSI15:1,2008-05-01T09:00:00Z,28.8332,-90.8320,10.0,10.48,145.0,,'11111222,11111222,99999999' 
WAVCIS,ioos:station:WAVCIS:CSI15:1,2008-05-01T10:00:00Z,28.8332,-90.8320,10.0,10.09,142.0,,'11111222,11111222,99999999' 
WAVCIS,ioos:station:WAVCIS:CSI15:1,2008-05-01T11:00:00Z,28.8332,-90.8320,10.0,10.23,150.0,,'11111222,11111222,99999999' 
WAVCIS,ioos:station:WAVCIS:CSI15:1,2008-05-01T12:00:00Z,28.8332,-90.8320,10.0,8.64,140.0,,'11111222,11111222,99999999' 
WAVCIS,ioos:station:WAVCIS:CSI15:1,2008-05-01T13:00:00Z,28.8332,-90.8320,10.0,7.61,140.0,,'11111222,11111222,99999999' 
WAVCIS,ioos:station:WAVCIS:CSI15:1,2008-05-01T14:00:00Z,28.8332,-90.8320,10.0,7.12,141.0,,'11111222,11111222,99999999' 
WAVCIS,ioos:station:WAVCIS:CSI15:1,2008-05-01T15:00:00Z,28.8332,-90.8320,10.0,7.34,136.0,,'11111222,11111222,99999999' 
WAVCIS,ioos:station:WAVCIS:CSI15:1,2008-05-01T16:00:00Z,28.8332,-90.8320,10.0,7.17,130.0,,'11111222,11111222,99999999' 
WAVCIS,ioos:station:WAVCIS:CSI15:1,2008-05-01T17:00:00Z,28.8332,-90.8320,10.0,7.77,128.0,,'11111222,11111222,99999999' 
WAVCIS,ioos:station:WAVCIS:CSI15:1,2008-05-01T18:00:00Z,28.8332,-90.8320,10.0,7.57,127.0,,'11111222,11111222,99999999' 
WAVCIS,ioos:station:WAVCIS:CSI15:1,2008-05-01T19:00:00Z,28.8332,-90.8320,10.0,7.45,122.0,,'11111222,11111222,99999999' 
WAVCIS,ioos:station:WAVCIS:CSI15:1,2008-05-01T20:00:00Z,28.8332,-90.8320,10.0,6.671,107.0,,'11111222,11111222,99999999' 
WAVCIS,ioos:station:WAVCIS:CSI15:1,2008-05-01T21:00:00Z,28.8332,-90.8320,10.0,7.0,105.0,,'11111222,11111222,99999999' 
WAVCIS,ioos:station:WAVCIS:CSI15:1,2008-05-01T22:00:00Z,28.8332,-90.8320,10.0,7.47,110.0,,'11111222,11111222,99999999' 
WAVCIS,ioos:station:WAVCIS:CSI15:1,2008-05-01T23:00:00Z,28.8332,-90.8320,10.0,7.67,103.0,,'11111222,11111222,99999999' 
WAVCIS,ioos:station:WAVCIS:CSI15:1,2008-05-02T00:00:00Z,28.8332,-90.8320,10.0,7.01,116.0,,'11111222,11111222,99999999' 
WAVCIS,ioos:station:WAVCIS:CSI15:1,2008-05-02T01:00:00Z,28.8332,-90.8320,10.0,8.2,118.0,,'11111222,11111222,99999999' 
WAVCIS,ioos:station:WAVCIS:CSI15:1,2008-05-02T02:00:00Z,28.8332,-90.8320,10.0,7.87,116.0,,'11111222,11111222,99999999' 
WAVCIS,ioos:station:WAVCIS:CSI15:1,2008-05-02T03:00:00Z,28.8332,-90.8320,10.0,11.03,125.0,,'11111222,11111222,99999999' 
WAVCIS,ioos:station:WAVCIS:CSI15:1,2008-05-02T04:00:00Z,28.8332,-90.8320,10.0,10.79,129.0,,'11111222,11111222,99999999' 
WAVCIS,ioos:station:WAVCIS:CSI15:1,2008-05-02T05:00:00Z,28.8332,-90.8320,10.0,10.28,127.0,,'11111222,11111222,99999999' 
WAVCIS,ioos:station:WAVCIS:CSI15:1,2008-05-02T06:00:00Z,28.8332,-90.8320,10.0,10.14,127.0,,'11111222,11111222,99999999' 
WAVCIS,ioos:station:WAVCIS:CSI15:1,2008-05-02T08:00:00Z,28.8332,-90.8320,10.0,10.01,130.0,,'11111222,11111222,99999999' 
WAVCIS,ioos:station:WAVCIS:CSI15:1,2008-05-02T09:00:00Z,28.8332,-90.8320,10.0,9.05,132.0,,'11111222,11111222,99999999' 
WAVCIS,ioos:station:WAVCIS:CSI15:1,2008-05-02T10:00:00Z,28.8332,-90.8320,10.0,9.63,131.0,,'11111222,11111222,99999999' 
WAVCIS,ioos:station:WAVCIS:CSI15:1,2008-05-02T11:00:00Z,28.8332,-90.8320,10.0,9.22,130.0,,'11111222,11111222,99999999' 
WAVCIS,ioos:station:WAVCIS:CSI15:1,2008-05-02T12:00:00Z,28.8332,-90.8320,10.0,8.95,133.0,,'11111222,11111222,99999999' 
WAVCIS,ioos:station:WAVCIS:CSI15:1,2008-05-02T13:00:00Z,28.8332,-90.8320,10.0,8.93,134.0,,'11111222,11111222,99999999' 
WAVCIS,ioos:station:WAVCIS:CSI15:1,2008-05-02T14:00:00Z,28.8332,-90.8320,10.0,8.86,131.0,,'11111222,11111222,99999999' 
WAVCIS,ioos:station:WAVCIS:CSI15:1,2008-05-02T15:00:00Z,28.8332,-90.8320,10.0,8.8,135.0,,'11111222,11111222,99999999' 
WAVCIS,ioos:station:WAVCIS:CSI15:1,2008-05-02T16:00:00Z,28.8332,-90.8320,10.0,8.51,129.0,,'11111222,11111222,99999999' 
WAVCIS,ioos:station:WAVCIS:CSI15:1,2008-05-02T17:00:00Z,28.8332,-90.8320,10.0,9.24,130.0,,'11111222,11111222,99999999' 
WAVCIS,ioos:station:WAVCIS:CSI15:1,2008-05-02T18:00:00Z,28.8332,-90.8320,10.0,9.12,129.0,,'11111222,11111222,99999999' 
WAVCIS,ioos:station:WAVCIS:CSI15:1,2008-05-02T19:00:00Z,28.8332,-90.8320,10.0,8.71,128.0,,'11111222,11111222,99999999' 
WAVCIS,ioos:station:WAVCIS:CSI15:1,2008-05-02T20:00:00Z,28.8332,-90.8320,10.0,8.4,124.0,,'11111222,11111222,99999999' 
WAVCIS,ioos:station:WAVCIS:CSI15:1,2008-05-02T21:00:00Z,28.8332,-90.8320,10.0,8.2,122.0,,'11111222,11111222,99999999' 
WAVCIS,ioos:station:WAVCIS:CSI15:1,2008-05-02T22:00:00Z,28.8332,-90.8320,10.0,7.57,121.0,,'11111222,11111222,99999999' 
WAVCIS,ioos:station:WAVCIS:CSI15:1,2008-05-02T23:00:00Z,28.8332,-90.8320,10.0,9.33,124.0,,'11111222,11111222,99999999' 
WAVCIS,ioos:station:WAVCIS:CSI15:1,2008-05-03T00:00:00Z,28.8332,-90.8320,10.0,9.97,121.0,,'11111222,11111222,99999999' 
WAVCIS,ioos:station:WAVCIS:CSI15:1,2008-05-03T01:00:00Z,28.8332,-90.8320,10.0,8.63,124.0,,'11111222,11111222,99999999' 
WAVCIS,ioos:station:WAVCIS:CSI15:1,2008-05-03T02:00:00Z,28.8332,-90.8320,10.0,9.77,126.0,,'11111222,11111222,99999999' 
WAVCIS,ioos:station:WAVCIS:CSI15:1,2008-05-03T03:00:00Z,28.8332,-90.8320,10.0,8.39,127.0,,'11111222,11111222,99999999' 
WAVCIS,ioos:station:WAVCIS:CSI15:1,2008-05-03T04:00:00Z,28.8332,-90.8320,10.0,7.63,128.0,,'11111222,11111222,99999999' 
WAVCIS,ioos:station:WAVCIS:CSI15:1,2008-05-03T06:00:00Z,28.8332,-90.8320,10.0,7.38,135.0,,'11111222,11111222,99999999' 
WAVCIS,ioos:station:WAVCIS:CSI15:1,2008-05-03T08:00:00Z,28.8332,-90.8320,10.0,8.04,143.0,,'11111222,11111222,99999999' 
WAVCIS,ioos:station:WAVCIS:CSI15:1,2008-05-03T09:00:00Z,28.8332,-90.8320,10.0,6.59,151.0,,'11111222,11111222,99999999' 
WAVCIS,ioos:station:WAVCIS:CSI15:1,2008-05-03T10:00:00Z,28.8332,-90.8320,10.0,6.178,163.0,,'11111222,11111222,99999999' 
WAVCIS,ioos:station:WAVCIS:CSI15:1,2008-05-03T11:00:00Z,28.8332,-90.8320,10.0,5.036,172.0,,'11111222,11111222,99999999' 
WAVCIS,ioos:station:WAVCIS:CSI15:1,2008-05-03T12:00:00Z,28.8332,-90.8320,10.0,5.211,158.0,,'11111222,11111222,99999999' 
WAVCIS,ioos:station:WAVCIS:CSI15:1,2008-05-03T13:00:00Z,28.8332,-90.8320,10.0,5.796,157.0,,'11111222,11111222,99999999' 
WAVCIS,ioos:station:WAVCIS:CSI15:1,2008-05-03T14:00:00Z,28.8332,-90.8320,10.0,5.676,172.0,,'11111222,11111222,99999999' 
WAVCIS,ioos:station:WAVCIS:CSI15:1,2008-05-03T15:00:00Z,28.8332,-90.8320,10.0,5.038,202.0,,'11111222,11111222,99999999' 
WAVCIS,ioos:station:WAVCIS:CSI15:1,2008-05-03T16:00:00Z,28.8332,-90.8320,10.0,4.021,197.0,,'11111222,11111222,99999999' 
WAVCIS,ioos:station:WAVCIS:CSI15:1,2008-05-03T17:00:00Z,28.8332,-90.8320,10.0,12.44,312.0,,'11111222,11111222,99999999' 
WAVCIS,ioos:station:WAVCIS:CSI15:1,2008-05-03T18:00:00Z,28.8332,-90.8320,10.0,8.31,289.0,,'11111222,11111222,99999999' 
WAVCIS,ioos:station:WAVCIS:CSI15:1,2008-05-03T19:00:00Z,28.8332,-90.8320,10.0,6.879,305.0,,'11111222,11111222,99999999' 
WAVCIS,ioos:station:WAVCIS:CSI15:1,2008-05-03T20:00:00Z,28.8332,-90.8320,10.0,3.629,336.0,,'11111222,11111222,99999999' 
WAVCIS,ioos:station:WAVCIS:CSI15:1,2008-05-03T21:00:00Z,28.8332,-90.8320,10.0,4.123,351.0,,'11111222,11111222,99999999' 
WAVCIS,ioos:station:WAVCIS:CSI15:1,2008-05-03T23:00:00Z,28.8332,-90.8320,10.0,2.549,48.0,,'11111222,11111222,99999999' 
WAVCIS,ioos:station:WAVCIS:CSI15:1,2008-05-04T04:00:00Z,28.8332,-90.8320,10.0,2.304,136.0,,'11111222,11111222,99999999' 
WAVCIS,ioos:station:WAVCIS:CSI15:1,2008-05-04T05:00:00Z,28.8332,-90.8320,10.0,2.271,158.0,,'11111222,11111222,99999999' 
WAVCIS,ioos:station:WAVCIS:CSI15:1,2008-05-04T06:00:00Z,28.8332,-90.8320,10.0,0.902,157.0,,'11111222,11111222,99999999' 
WAVCIS,ioos:station:WAVCIS:CSI15:1,2008-05-04T07:00:00Z,28.8332,-90.8320,10.0,1.664,249.0,,'11111222,11111222,99999999' 
WAVCIS,ioos:station:WAVCIS:CSI15:1,2008-05-04T08:00:00Z,28.8332,-90.8320,10.0,1.689,290.0,,'11111222,11111222,99999999' 
WAVCIS,ioos:station:WAVCIS:CSI15:1,2008-05-04T09:00:00Z,28.8332,-90.8320,10.0,1.958,329.0,,'11111222,11111222,99999999' 
WAVCIS,ioos:station:WAVCIS:CSI15:1,2008-05-04T10:00:00Z,28.8332,-90.8320,10.0,2.744,349.0,,'11111222,11111222,99999999' 
WAVCIS,ioos:station:WAVCIS:CSI15:1,2008-05-04T11:00:00Z,28.8332,-90.8320,10.0,5.431,10.0,,'11111222,11111222,99999999' 
WAVCIS,ioos:station:WAVCIS:CSI15:1,2008-05-04T12:00:00Z,28.8332,-90.8320,10.0,7.49,9.0,,'11111222,11111222,99999999' 
WAVCIS,ioos:station:WAVCIS:CSI15:1,2008-05-04T13:00:00Z,28.8332,-90.8320,10.0,7.96,24.0,,'11111222,11111222,99999999' 
WAVCIS,ioos:station:WAVCIS:CSI15:1,2008-05-04T14:00:00Z,28.8332,-90.8320,10.0,8.3,31.0,,'11111222,11111222,99999999' 
WAVCIS,ioos:station:WAVCIS:CSI15:1,2008-05-04T15:00:00Z,28.8332,-90.8320,10.0,7.51,29.0,,'11111222,11111222,99999999' 
WAVCIS,ioos:station:WAVCIS:CSI15:1,2008-05-04T16:00:00Z,28.8332,-90.8320,10.0,6.37,37.0,,'11111222,11111222,99999999' 
WAVCIS,ioos:station:WAVCIS:CSI15:1,2008-05-04T17:00:00Z,28.8332,-90.8320,10.0,5.04,43.0,,'11111222,11111222,99999999' 
WAVCIS,ioos:station:WAVCIS:CSI15:1,2008-05-04T18:00:00Z,28.8332,-90.8320,10.0,5.425,49.0,,'11111222,11111222,99999999' 
WAVCIS,ioos:station:WAVCIS:CSI15:1,2008-05-04T19:00:00Z,28.8332,-90.8320,10.0,4.192,49.0,,'11111222,11111222,99999999' 
WAVCIS,ioos:station:WAVCIS:CSI15:1,2008-05-04T20:00:00Z,28.8332,-90.8320,10.0,3.324,47.0,,'11111222,11111222,99999999' 
WAVCIS,ioos:station:WAVCIS:CSI15:1,2008-05-04T21:00:00Z,28.8332,-90.8320,10.0,3.996,43.0,,'11111222,11111222,99999999' 
WAVCIS,ioos:station:WAVCIS:CSI15:1,2008-05-04T22:00:00Z,28.8332,-90.8320,10.0,3.387,42.0,,'11111222,11111222,99999999' 
WAVCIS,ioos:station:WAVCIS:CSI15:1,2008-05-04T23:00:00Z,28.8332,-90.8320,10.0,2.805,44.0,,'11111222,11111222,99999999' 
WAVCIS,ioos:station:WAVCIS:CSI15:1,2008-05-05T00:00:00Z,28.8332,-90.8320,10.0,2.036,72.0,,'11111222,11111222,99999999' 
WAVCIS,ioos:station:WAVCIS:CSI15:1,2008-05-05T01:00:00Z,28.8332,-90.8320,10.0,2.538,93.0,,'11111222,11111222,99999999' 
WAVCIS,ioos:station:WAVCIS:CSI15:1,2008-05-05T02:00:00Z,28.8332,-90.8320,10.0,2.163,90.0,,'11111222,11111222,99999999' 
WAVCIS,ioos:station:WAVCIS:CSI15:1,2008-05-05T03:00:00Z,28.8332,-90.8320,10.0,1.551,83.0,,'11111222,11111222,99999999' 
WAVCIS,ioos:station:WAVCIS:CSI15:1,2008-05-05T04:00:00Z,28.8332,-90.8320,10.0,2.204,83.0,,'11111222,11111222,99999999' 
WAVCIS,ioos:station:WAVCIS:CSI15:1,2008-05-05T05:00:00Z,28.8332,-90.8320,10.0,1.99,93.0,,'11111222,11111222,99999999' 
WAVCIS,ioos:station:WAVCIS:CSI15:1,2008-05-05T06:00:00Z,28.8332,-90.8320,10.0,2.133,107.0,,'11111222,11111222,99999999' 
WAVCIS,ioos:station:WAVCIS:CSI15:1,2008-05-05T07:00:00Z,28.8332,-90.8320,10.0,2.109,96.0,,'11111222,11111222,99999999' 
WAVCIS,ioos:station:WAVCIS:CSI15:1,2008-05-05T08:00:00Z,28.8332,-90.8320,10.0,1.796,111.0,,'11111222,11111222,99999999' 
WAVCIS,ioos:station:WAVCIS:CSI15:1,2008-05-05T09:00:00Z,28.8332,-90.8320,10.0,0.666,124.0,,'11111222,11111222,99999999' 
WAVCIS,ioos:station:WAVCIS:CSI15:1,2008-05-05T10:00:00Z,28.8332,-90.8320,10.0,0.727,6.0,,'11111222,11111222,99999999' 
WAVCIS,ioos:station:WAVCIS:CSI15:1,2008-05-05T11:00:00Z,28.8332,-90.8320,10.0,2.029,12.0,,'11111222,11111222,99999999' 
WAVCIS,ioos:station:WAVCIS:CSI15:1,2008-05-05T12:00:00Z,28.8332,-90.8320,10.0,1.679,345.0,,'11111222,11111222,99999999' 
WAVCIS,ioos:station:WAVCIS:CSI15:1,2008-05-05T13:00:00Z,28.8332,-90.8320,10.0,1.126,12.0,,'11111222,11111222,99999999' 
WAVCIS,ioos:station:WAVCIS:CSI15:1,2008-05-05T14:00:00Z,28.8332,-90.8320,10.0,4.058,29.0,,'11111222,11111222,99999999' 
WAVCIS,ioos:station:WAVCIS:CSI15:1,2008-05-05T15:00:00Z,28.8332,-90.8320,10.0,4.712,28.0,,'11111222,11111222,99999999' 
WAVCIS,ioos:station:WAVCIS:CSI15:1,2008-05-05T16:00:00Z,28.8332,-90.8320,10.0,6.275,62.0,,'11111222,11111222,99999999' 
WAVCIS,ioos:station:WAVCIS:CSI15:1,2008-05-05T17:00:00Z,28.8332,-90.8320,10.0,6.594,56.0,,'11111222,11111222,99999999' 
WAVCIS,ioos:station:WAVCIS:CSI15:1,2008-05-05T18:00:00Z,28.8332,-90.8320,10.0,5.78,56.0,,'11111222,11111222,99999999' 
WAVCIS,ioos:station:WAVCIS:CSI15:1,2008-05-05T19:00:00Z,28.8332,-90.8320,10.0,5.451,73.0,,'11111222,11111222,99999999' 
WAVCIS,ioos:station:WAVCIS:CSI15:1,2008-05-05T20:00:00Z,28.8332,-90.8320,10.0,4.65,88.0,,'11111222,11111222,99999999' 
WAVCIS,ioos:station:WAVCIS:CSI15:1,2008-05-05T21:00:00Z,28.8332,-90.8320,10.0,3.443,74.0,,'11111222,11111222,99999999' 
WAVCIS,ioos:station:WAVCIS:CSI15:1,2008-05-05T22:00:00Z,28.8332,-90.8320,10.0,3.461,63.0,,'11111222,11111222,99999999' 
WAVCIS,ioos:station:WAVCIS:CSI15:1,2008-05-05T23:00:00Z,28.8332,-90.8320,10.0,3.2,62.0,,'11111222,11111222,99999999' 
WAVCIS,ioos:station:WAVCIS:CSI15:1,2008-05-06T00:00:00Z,28.8332,-90.8320,10.0,3.357,70.0,,'11111222,11111222,99999999' 
WAVCIS,ioos:station:WAVCIS:CSI15:1,2008-05-06T01:00:00Z,28.8332,-90.8320,10.0,2.213,76.0,,'11111222,11111222,99999999' 
WAVCIS,ioos:station:WAVCIS:CSI15:1,2008-05-06T02:00:00Z,28.8332,-90.8320,10.0,0.962,81.0,,'11111222,11111222,99999999' 
WAVCIS,ioos:station:WAVCIS:CSI15:1,2008-05-06T03:00:00Z,28.8332,-90.8320,10.0,1.865,117.0,,'11111222,11111222,99999999' 
WAVCIS,ioos:station:WAVCIS:CSI15:1,2008-05-06T04:00:00Z,28.8332,-90.8320,10.0,2.091,105.0,,'11111222,11111222,99999999' 
WAVCIS,ioos:station:WAVCIS:CSI15:1,2008-05-06T05:00:00Z,28.8332,-90.8320,10.0,1.923,97.0,,'11111222,11111222,99999999' 
WAVCIS,ioos:station:WAVCIS:CSI15:1,2008-05-06T06:00:00Z,28.8332,-90.8320,10.0,2.221,79.0,,'11111222,11111222,99999999' 
WAVCIS,ioos:station:WAVCIS:CSI15:1,2008-05-06T07:00:00Z,28.8332,-90.8320,10.0,3.162,76.0,,'11111222,11111222,99999999' 
WAVCIS,ioos:station:WAVCIS:CSI15:1,2008-05-06T08:00:00Z,28.8332,-90.8320,10.0,2.02,93.0,,'11111222,11111222,99999999' 
WAVCIS,ioos:station:WAVCIS:CSI15:1,2008-05-06T09:00:00Z,28.8332,-90.8320,10.0,2.067,66.0,,'11111222,11111222,99999999' 
WAVCIS,ioos:station:WAVCIS:CSI15:1,2008-05-06T10:00:00Z,28.8332,-90.8320,10.0,4.552,53.0,,'11111222,11111222,99999999' 
WAVCIS,ioos:station:WAVCIS:CSI15:1,2008-05-06T11:00:00Z,28.8332,-90.8320,10.0,3.75,60.0,,'11111222,11111222,99999999' 
WAVCIS,ioos:station:WAVCIS:CSI15:1,2008-05-06T12:00:00Z,28.8332,-90.8320,10.0,4.409,43.0,,'11111222,11111222,99999999' 
WAVCIS,ioos:station:WAVCIS:CSI15:1,2008-05-06T13:00:00Z,28.8332,-90.8320,10.0,5.109,61.0,,'11111222,11111222,99999999' 
WAVCIS,ioos:station:WAVCIS:CSI15:1,2008-05-06T14:00:00Z,28.8332,-90.8320,10.0,5.532,70.0,,'11111222,11111222,99999999' 
WAVCIS,ioos:station:WAVCIS:CSI15:1,2008-05-06T15:00:00Z,28.8332,-90.8320,10.0,4.346,75.0,,'11111222,11111222,99999999' 
WAVCIS,ioos:station:WAVCIS:CSI15:1,2008-05-06T16:00:00Z,28.8332,-90.8320,10.0,3.959,85.0,,'11111222,11111222,99999999' 
WAVCIS,ioos:station:WAVCIS:CSI15:1,2008-05-06T17:00:00Z,28.8332,-90.8320,10.0,4.098,94.0,,'11111222,11111222,99999999' 
WAVCIS,ioos:station:WAVCIS:CSI15:1,2008-05-06T18:00:00Z,28.8332,-90.8320,10.0,3.537,72.0,,'11111222,11111222,99999999' 
WAVCIS,ioos:station:WAVCIS:CSI15:1,2008-05-06T19:00:00Z,28.8332,-90.8320,10.0,2.501,83.0,,'11111222,11111222,99999999' 
WAVCIS,ioos:station:WAVCIS:CSI15:1,2008-05-06T20:00:00Z,28.8332,-90.8320,10.0,2.385,87.0,,'11111222,11111222,99999999' 
WAVCIS,ioos:station:WAVCIS:CSI15:1,2008-05-06T21:00:00Z,28.8332,-90.8320,10.0,3.708,112.0,,'11111222,11111222,99999999' 
WAVCIS,ioos:station:WAVCIS:CSI15:1,2008-05-06T22:00:00Z,28.8332,-90.8320,10.0,3.845,118.0,,'11111222,11111222,99999999' 
WAVCIS,ioos:station:WAVCIS:CSI15:1,2008-05-06T23:00:00Z,28.8332,-90.8320,10.0,4.53,109.0,,'11111222,11111222,99999999' 
WAVCIS,ioos:station:WAVCIS:CSI15:1,2008-05-07T00:00:00Z,28.8332,-90.8320,10.0,4.384,115.0,,'11111222,11111222,99999999' 
WAVCIS,ioos:station:WAVCIS:CSI15:1,2008-05-07T01:00:00Z,28.8332,-90.8320,10.0,5.228,108.0,,'11111222,11111222,99999999' 
WAVCIS,ioos:station:WAVCIS:CSI15:1,2008-05-07T02:00:00Z,28.8332,-90.8320,10.0,5.342,130.0,,'11111222,11111222,99999999' 
WAVCIS,ioos:station:WAVCIS:CSI15:1,2008-05-07T03:00:00Z,28.8332,-90.8320,10.0,4.724,144.0,,'11111222,11111222,99999999' 
WAVCIS,ioos:station:WAVCIS:CSI15:1,2008-05-07T04:00:00Z,28.8332,-90.8320,10.0,5.528,137.0,,'11111222,11111222,99999999' 
WAVCIS,ioos:station:WAVCIS:CSI15:1,2008-05-07T05:00:00Z,28.8332,-90.8320,10.0,5.565,132.0,,'11111222,11111222,99999999' 
WAVCIS,ioos:station:WAVCIS:CSI15:1,2008-05-07T06:00:00Z,28.8332,-90.8320,10.0,6.323,123.0,,'11111222,11111222,99999999' 
WAVCIS,ioos:station:WAVCIS:CSI15:1,2008-05-07T07:00:00Z,28.8332,-90.8320,10.0,5.141,140.0,,'11111222,11111222,99999999' 
WAVCIS,ioos:station:WAVCIS:CSI15:1,2008-05-07T08:00:00Z,28.8332,-90.8320,10.0,5.585,141.0,,'11111222,11111222,99999999' 
WAVCIS,ioos:station:WAVCIS:CSI15:1,2008-05-07T09:00:00Z,28.8332,-90.8320,10.0,5.934,131.0,,'11111222,11111222,99999999' 
WAVCIS,ioos:station:WAVCIS:CSI15:1,2008-05-07T10:00:00Z,28.8332,-90.8320,10.0,6.612,125.0,,'11111222,11111222,99999999' 
WAVCIS,ioos:station:WAVCIS:CSI15:1,2008-05-07T11:00:00Z,28.8332,-90.8320,10.0,6.67,125.0,,'11111222,11111222,99999999' 
WAVCIS,ioos:station:WAVCIS:CSI15:1,2008-05-07T12:00:00Z,28.8332,-90.8320,10.0,7.34,121.0,,'11111222,11111222,99999999' 
WAVCIS,ioos:station:WAVCIS:CSI15:1,2008-05-07T13:00:00Z,28.8332,-90.8320,10.0,7.92,120.0,,'11111222,11111222,99999999' 
WAVCIS,ioos:station:WAVCIS:CSI15:1,2008-05-07T14:00:00Z,28.8332,-90.8320,10.0,7.77,113.0,,'11111222,11111222,99999999' 
WAVCIS,ioos:station:WAVCIS:CSI15:1,2008-05-07T16:00:00Z,28.8332,-90.8320,10.0,9.43,122.0,,'11111222,11111222,99999999' 
WAVCIS,ioos:station:WAVCIS:CSI15:1,2008-05-07T17:00:00Z,28.8332,-90.8320,10.0,9.87,126.0,,'11111222,11111222,99999999' 
WAVCIS,ioos:station:WAVCIS:CSI15:1,2008-05-07T18:00:00Z,28.8332,-90.8320,10.0,8.36,126.0,,'11111222,11111222,99999999' 
WAVCIS,ioos:station:WAVCIS:CSI15:1,2008-05-07T19:00:00Z,28.8332,-90.8320,10.0,8.46,131.0,,'11111222,11111222,99999999' 
WAVCIS,ioos:station:WAVCIS:CSI15:1,2008-05-07T20:00:00Z,28.8332,-90.8320,10.0,8.11,135.0,,'11111222,11111222,99999999' 
WAVCIS,ioos:station:WAVCIS:CSI15:1,2008-05-07T21:00:00Z,28.8332,-90.8320,10.0,8.02,139.0,,'11111222,11111222,99999999' 
WAVCIS,ioos:station:WAVCIS:CSI15:1,2008-05-07T22:00:00Z,28.8332,-90.8320,10.0,8.32,146.0,,'11111222,11111222,99999999' 
WAVCIS,ioos:station:WAVCIS:CSI15:1,2008-05-07T23:00:00Z,28.8332,-90.8320,10.0,8.02,145.0,,'11111222,11111222,99999999' 
WAVCIS,ioos:station:WAVCIS:CSI15:1,2008-05-08T00:00:00Z,28.8332,-90.8320,10.0,8.65,139.0,,'11111222,11111222,99999999' 
WAVCIS,ioos:station:WAVCIS:CSI15:1,2008-05-08T01:00:00Z,28.8332,-90.8320,10.0,9.48,138.0,,'11111222,11111222,99999999' 
WAVCIS,ioos:station:WAVCIS:CSI15:1,2008-05-08T02:00:00Z,28.8332,-90.8320,10.0,10.02,142.0,,'11111222,11111222,99999999' 
WAVCIS,ioos:station:WAVCIS:CSI15:1,2008-05-08T03:00:00Z,28.8332,-90.8320,10.0,10.67,144.0,,'11111222,11111222,99999999' 
WAVCIS,ioos:station:WAVCIS:CSI15:1,2008-05-08T04:00:00Z,28.8332,-90.8320,10.0,9.86,152.0,,'11111222,11111222,99999999' 
WAVCIS,ioos:station:WAVCIS:CSI15:1,2008-05-08T05:00:00Z,28.8332,-90.8320,10.0,8.9,161.0,,'11111222,11111222,99999999' 
WAVCIS,ioos:station:WAVCIS:CSI15:1,2008-05-08T06:00:00Z,28.8332,-90.8320,10.0,7.68,167.0,,'11111222,11111222,99999999' 
WAVCIS,ioos:station:WAVCIS:CSI15:1,2008-05-08T07:00:00Z,28.8332,-90.8320,10.0,7.46,176.0,,'11111222,11111222,99999999' 
WAVCIS,ioos:station:WAVCIS:CSI15:1,2008-05-08T08:00:00Z,28.8332,-90.8320,10.0,7.77,177.0,,'11111222,11111222,99999999' 
WAVCIS,ioos:station:WAVCIS:CSI15:1,2008-05-08T09:00:00Z,28.8332,-90.8320,10.0,7.76,166.0,,'11111222,11111222,99999999' 
WAVCIS,ioos:station:WAVCIS:CSI15:1,2008-05-08T10:00:00Z,28.8332,-90.8320,10.0,8.77,161.0,,'11111222,11111222,99999999' 
WAVCIS,ioos:station:WAVCIS:CSI15:1,2008-05-08T11:00:00Z,28.8332,-90.8320,10.0,9.39,164.0,,'11111222,11111222,99999999' 
WAVCIS,ioos:station:WAVCIS:CSI15:1,2008-05-08T12:00:00Z,28.8332,-90.8320,10.0,11.4,158.0,,'11111222,11111222,99999999' 
WAVCIS,ioos:station:WAVCIS:CSI15:1,2008-05-08T13:00:00Z,28.8332,-90.8320,10.0,10.78,161.0,,'11111222,11111222,99999999' 
WAVCIS,ioos:station:WAVCIS:CSI15:1,2008-05-08T14:00:00Z,28.8332,-90.8320,10.0,10.56,158.0,,'11111222,11111222,99999999' 
WAVCIS,ioos:station:WAVCIS:CSI15:1,2008-05-08T15:00:00Z,28.8332,-90.8320,10.0,11.43,161.0,,'11111222,11111222,99999999' 
WAVCIS,ioos:station:WAVCIS:CSI15:1,2008-05-08T16:00:00Z,28.8332,-90.8320,10.0,11.32,162.0,,'11111222,11111222,99999999' 
WAVCIS,ioos:station:WAVCIS:CSI15:1,2008-05-08T17:00:00Z,28.8332,-90.8320,10.0,10.56,171.0,,'11111222,11111222,99999999' 
WAVCIS,ioos:station:WAVCIS:CSI15:1,2008-05-08T18:00:00Z,28.8332,-90.8320,10.0,8.2,183.0,,'11111222,11111222,99999999' 
WAVCIS,ioos:station:WAVCIS:CSI15:1,2008-05-08T19:00:00Z,28.8332,-90.8320,10.0,7.63,193.0,,'11111222,11111222,99999999' 
WAVCIS,ioos:station:WAVCIS:CSI15:1,2008-05-08T20:00:00Z,28.8332,-90.8320,10.0,7.85,212.0,,'11111222,11111222,99999999' 
WAVCIS,ioos:station:WAVCIS:CSI15:1,2008-05-08T21:00:00Z,28.8332,-90.8320,10.0,7.01,220.0,,'11111222,11111222,99999999' 
WAVCIS,ioos:station:WAVCIS:CSI15:1,2008-05-08T22:00:00Z,28.8332,-90.8320,10.0,6.46,217.0,,'11111222,11111222,99999999' 
WAVCIS,ioos:station:WAVCIS:CSI15:1,2008-05-08T23:00:00Z,28.8332,-90.8320,10.0,7.15,210.0,,'11111222,11111222,99999999' 
WAVCIS,ioos:station:WAVCIS:CSI15:1,2008-05-09T00:00:00Z,28.8332,-90.8320,10.0,6.998,212.0,,'11111222,11111222,99999999' 
WAVCIS,ioos:station:WAVCIS:CSI15:1,2008-05-09T01:00:00Z,28.8332,-90.8320,10.0,8.18,198.0,,'11111222,11111222,99999999' 
WAVCIS,ioos:station:WAVCIS:CSI15:1,2008-05-09T02:00:00Z,28.8332,-90.8320,10.0,7.84,206.0,,'11111222,11111222,99999999' 
WAVCIS,ioos:station:WAVCIS:CSI15:1,2008-05-09T03:00:00Z,28.8332,-90.8320,10.0,7.18,209.0,,'11111222,11111222,99999999' 
WAVCIS,ioos:station:WAVCIS:CSI15:1,2008-05-09T04:00:00Z,28.8332,-90.8320,10.0,6.572,207.0,,'11111222,11111222,99999999' 
WAVCIS,ioos:station:WAVCIS:CSI15:1,2008-05-09T06:00:00Z,28.8332,-90.8320,10.0,6.869,196.0,,'11111222,11111222,99999999' 
WAVCIS,ioos:station:WAVCIS:CSI15:1,2008-05-09T07:00:00Z,28.8332,-90.8320,10.0,7.18,192.0,,'11111222,11111222,99999999' 
WAVCIS,ioos:station:WAVCIS:CSI15:1,2008-05-09T08:00:00Z,28.8332,-90.8320,10.0,6.067,192.0,,'11111222,11111222,99999999' 
WAVCIS,ioos:station:WAVCIS:CSI15:1,2008-05-09T09:00:00Z,28.8332,-90.8320,10.0,6.347,199.0,,'11111222,11111222,99999999' 
WAVCIS,ioos:station:WAVCIS:CSI15:1,2008-05-09T10:00:00Z,28.8332,-90.8320,10.0,5.701,201.0,,'11111222,11111222,99999999' 
WAVCIS,ioos:station:WAVCIS:CSI15:1,2008-05-09T11:00:00Z,28.8332,-90.8320,10.0,5.1,210.0,,'11111222,11111222,99999999' 
WAVCIS,ioos:station:WAVCIS:CSI15:1,2008-05-09T12:00:00Z,28.8332,-90.8320,10.0,4.479,201.0,,'11111222,11111222,99999999' 
WAVCIS,ioos:station:WAVCIS:CSI15:1,2008-05-09T13:00:00Z,28.8332,-90.8320,10.0,3.235,210.0,,'11111222,11111222,99999999' 
WAVCIS,ioos:station:WAVCIS:CSI15:1,2008-05-09T14:00:00Z,28.8332,-90.8320,10.0,4.071,190.0,,'11111222,11111222,99999999' 
WAVCIS,ioos:station:WAVCIS:CSI15:1,2008-05-09T15:00:00Z,28.8332,-90.8320,10.0,5.91,170.0,,'11111222,11111222,99999999' 